This demonstration page uses our WeatherBlox Daily Observations layout. Learn more.

Left ArrowRight Arrow

Hourly Observations for June 10, 2020

Temp ( °F °C ) Dew Point ( °F °C ) Humidity (%) Winds ( mph kmh ) Pressure ( in mb ) Visibility ( mi km ) Precip ( " mm )
12:53 am 00:53 Clear 46 7.8 38 3.3 73 73 WSW 7 11 30.01 1016 10 16 N/A
1:53 am 01:53 Cloudy 50 10 39 3.9 66 66 WSW 7 11 30.01 1016 10 16 N/A
2:53 am 02:53 Partly Cloudy 48 8.9 39 3.9 71 71 SW 10 17 30.02 1017 10 16 N/A
3:53 am 03:53 Mostly Clear 46 7.8 39 3.9 77 77 W 3 6 30.03 1017 10 16 N/A
4:53 am 04:53 Clear 44 6.7 39 3.9 83 83 WSW 8 13 30.03 1017 10 16 N/A
5:53 am 05:53 Sunny 46 7.8 39 3.9 77 77 SW 10 17 30.04 1017 10 16 N/A
6:53 am 06:53 Sunny 50 10 40 4.4 68 68 SW 13 20 30.04 1017 10 16 N/A
7:53 am 07:53 Sunny 55 12.8 42 5.6 62 62 WSW 13 20 30.03 1017 10 16 N/A
8:53 am 08:53 Sunny 61 16.1 41 5 48 48 W 15 24 30.03 1017 10 16 N/A
9:53 am 09:53 Sunny 65 18.3 42 5.6 43 43 W 16 26 30.02 1017 10 16 N/A
10:53 am 10:53 Sunny 68 20 40 4.4 36 36 WNW 15 24 30.01 1016 10 16 N/A
11:53 am 11:53 Sunny 70 21.1 40 4.4 34 34 NW 20 31 30.02 1017 10 16 N/A
12:53 pm 12:53 Partly Cloudy 73 22.8 40 4.4 30 30 W 18 30 30.01 1016 10 16 N/A
1:53 pm 13:53 Partly Cloudy 74 23.3 38 3.3 27 27 NW 18 30 30.01 1016 10 16 N/A
2:53 pm 14:53 Mostly Sunny 73 22.8 37 2.8 27 27 NW 18 30 30.01 1016 10 16 N/A
3:53 pm 15:53 Mostly Cloudy 73 22.8 38 3.3 28 28 NW 14 22 30.01 1016 10 16 N/A
4:53 pm 16:53 Cloudy 72 22.2 38 3.3 29 29 NW 14 22 30.01 1016 10 16 N/A
5:53 pm 17:53 Mostly Cloudy 73 22.8 38 3.3 28 28 WNW 16 26 30.01 1016 10 16 N/A
6:53 pm 18:53 Mostly Cloudy 73 22.8 39 3.9 29 29 NW 10 17 29.99 1016 10 16 N/A
7:53 pm 19:53 Partly Cloudy 71 21.7 40 4.4 32 32 NW 8 13 29.99 1016 10 16 N/A
8:53 pm 20:53 Sunny 66 18.9 44 6.7 45 45 NW 5 7 30.00 1016 10 16 N/A
9:53 pm 21:53 Clear 56 13.3 44 6.7 65 65 SW 5 7 30.03 1017 10 16 N/A
10:53 pm 22:53 Clear 52 11.1 44 6.7 75 75 S 8 13 30.05 1018 10 16 N/A
11:53 pm 23:53 Clear 53 11.7 43 6.1 69 69 SW 8 13 30.05 1018 10 16 N/A

Powered by AerisWeather